Regional Weather Roundup
Issued by NWS San Diego, CA

Current Version | Previous Version | Text Only | Print | Product List | Glossary On
Versions: 1 2 3 4 5 6 7 8 9 10 11 12 13 14 15 16 17 18 19 20 21 22 23 24 25 26 27 28 29 30 31 32 33 34 35 36 37 38 39 40 41 42 43 44 45 46 47 48 49 50
000
ASUS46 KSGX 271611
RWRSGX

SAN DIEGO HOURLY WEATHER ROUNDUP
NATIONAL WEATHER SERVICE SAN DIEGO CA
900 AM PDT TUE OCT 27 2020

NOTE: "FAIR" INDICATES FEW OR NO CLOUDS BELOW 12,000 FEET WITH NO
SIGNIFICANT WEATHER AND/OR OBSTRUCTIONS TO VISIBILITY.

CAZ042-043-060-061-PZZ750-775-271700-

GREATER SAN DIEGO AREA

CITY           SKY/WX    TMP DP  RH WIND       PRES   REMARKS
SAN DIEGO AP   MOSUNNY   62  22  21 CALM      30.08R
CHULA VISTA      N/A     58  29  33 CALM      29.96R
BROWN FIELD    SUNNY     62  13  14 S6        30.06R
MIRAMAR MCAS   SUNNY     65  17  15 NW5       30.05R
MONTGOMERY FLD SUNNY     61  13  15 S3        30.06R
GILLESPIE FLD  SUNNY     48  18  29 CALM      30.07R
LEMON GROVE      N/A     61  20  20 CALM      30.04R

$$

NORTH SAN DIEGO COUNTY

CITY           SKY/WX    TMP DP  RH WIND       PRES   REMARKS
CAMP PENDLETON SUNNY     61   8  12 NE6       30.06R
OCEANSIDE AP   SUNNY     57  20  23 NE5       30.06R
OCEANSIDE HBR    N/A     56  20  24 NE3       30.12R
VISTA            N/A     53  25  33 CALM      30.05R
CARLSBAD       SUNNY     62  10  13 NE3       30.05R
LA JOLLA SCRIP   N/A     64  31  29 CALM      30.05R
FALLBROOK      FAIR      59  10  14 N5        30.07R
ESCONDIDO        N/A     56  22  27 CALM      30.06R
RANCHO BERNARD   N/A     52  22  30 N2        30.06R
POWAY            N/A     49  17  28 W2        30.08R

$$

EAST SAN DIEGO COUNTY

CITY           SKY/WX    TMP DP  RH WIND       PRES   REMARKS
RAMONA         SUNNY     67   3   8 NE9       30.06R
LA MESA          N/A     56  20  24 CALM      30.00R
JAMUL            N/A     62  15  16 CALM      30.07R

$$

ORANGE COUNTY AND THE LOS ANGELES BASIN

CITY           SKY/WX    TMP DP  RH WIND       PRES   REMARKS
JOHN WAYNE AP  MOSUNNY   72  -2   5 NE18G30   30.04R
LAGUNA BEACH     N/A     63  11  13 CALM      30.03R
HUNTINGTON BCH   N/A     59  31  34 N2        30.06R
LOS ALAMITOS   MOSUNNY   56  28  34 CALM      30.06R HAZE
FULLERTON      CLOUDY    60  26  27 CALM      30.05R SMOKE
LONG BEACH     CLOUDY    57  21  24 CALM      30.06R HAZE
L.A. AP        MOSUNNY   60  17  18 SE6       30.06R
L.A. DOWNTOWN  SUNNY     59  25  27 CALM      30.05R

$$

THE INLAND EMPIRE

CITY           SKY/WX    TMP DP  RH WIND       PRES   REMARKS
CORONA         SUNNY     69  -1   6 NE16G25   30.08R
UPLAND AP      FAIR      64  -4   6 NE5       30.07R
CHINO          MOSUNNY   72  -5   4 NE13G24   30.07R
ONTARIO        MOSUNNY   68  -9   4 NE28G41   30.06R
SAN BERNARDINO MOSUNNY   63   3   9 NE5       30.08R
RIVERSIDE AP   SUNNY     68  -7   5 N20G32    30.05R
MORENO VALLEY    N/A     64  16  15 CALM      30.04R
MARCH ARB      SUNNY     58   1  10 SE6       30.08R
HORSETHIEF CYN   N/A     65  -1   7 NE3       30.06S
LAKE ELSINORE    N/A     62  12  14 CALM      30.02R
HEMET AP         N/A     53   8  16 CALM      30.09R
FRENCH VALLEY  FAIR      54  10  17 NE6       30.08R
TEMECULA         N/A     45  30  55 CALM      30.07F

$$

SAN BERNARDINO AND RIVERSIDE COUNTY MOUNTAINS

CITY           SKY/WX    TMP DP  RH WIND       PRES   REMARKS
BIG BEAR AP    SUNNY     37 -15  10 NE17G29   30.19R WCI  28
BIG BEAR LAKE    N/A     42  -3  15 NE5       30.23R
LK ARROWHEAD N   N/A     47  -7  10 SE1       30.15R
WRIGHTWOOD       N/A     42  -6  13 CALM      30.27R
ANGELUS OAKS     N/A     44   4  18 CALM      30.09R
IDYLLWILD        N/A     35  11  36 S2        30.03S
GARNER VALLEY    N/A     49   6  17 N3        30.10R
TORO PEAK        N/A     25 -12  19 N53         N/A  WCI   3

$$

SOUTHERN DESERT INCLUDING THE COACHELLA VALLEY

CITY           SKY/WX    TMP DP  RH WIND       PRES   REMARKS
PALM SPRINGS   SUNNY     71  -3   5 N14G23    30.12R
THOUSAND PALMS   N/A     69  -1   6 N5        30.06R
PALM DESERT      N/A     67  20  16 CALM      26.18
INDIO            N/A     69  -1   6 NW5       30.10R
THERMAL        SUNNY     71  -3   5 NW13      30.10R
BORREGO AP     FAIR      59  -2   8 CALM      30.09R
OCOTILLO WELLS   N/A     60   8  13 CALM      30.03R
CANEBRAKE        N/A     59  -3   8 N2        30.07R
BLYTHE         SUNNY     63  -3   7 N22G36    30.09R
IMPERIAL AP    SUNNY     59  17  19 SW10      30.09R
EL CENTRO NAS  MOSUNNY   64  23  21 W5        30.10R
YUMA AZ        SUNNY     61   0   8 NW16      30.08R

$$

UPPER DESERT

CITY           SKY/WX    TMP DP  RH WIND       PRES   REMARKS
HESPERIA         N/A     53  -3  10 E2        30.25S
PALMDALE       SUNNY     46   9  22 NW5       30.19R
LANCASTER      SUNNY     43   7  22 CALM      30.19R
EDWARDS AFB    MOSUNNY   41  -6  13 NW3       30.18R
GRAY BUTTE AP  FAIR      55 -11   6 SE13G18   30.16R
DAGGETT        SUNNY     58  -9   6 S7        30.19R
29 PALMS N     MOSUNNY   58 -10   6 N8        30.23R
29 PALMS JTNP    N/A     58  -6   7 CALM      30.12R
NEEDLES        SUNNY     58   0   9 N21       30.13S

$$

REGIONAL REPORTS

CITY           SKY/WX    TMP DP  RH WIND       PRES   REMARKS
SANTA BARBARA  SUNNY     58  38  47 CALM      30.08R
SANDBERG       SUNNY     49  -6  10 NE13      30.18R
LAS VEGAS NV   SUNNY     52  -7   8 E15       30.22R
PHOENIX AZ     MOSUNNY   54  16  22 VRB5      30.01R
TIJUANA        SUNNY     57   9  14 SE7       30.08R
ENSENADA NW      N/A     62  32  32 NE3       30.01R

$$

OFFSHORE ISLANDS

CITY           SKY/WX    TMP DP  RH WIND       PRES   REMARKS
CATALINA ARPT  SUNNY     63   4   9 E12       30.09R HAZE
SAN CLEMENTE I MOSUNNY   67  53  61 CALM      30.08R
SAN NICOLAS IS MOSUNNY   65  50  58 N16       30.07R

$$

MARINE AND OFFSHORE BUOY REPORTS

STATION/POSITION SKY/WX   TEMP    WIND        PRES    VSBY  SWELL
                          AIR SEA DIR/SP/G                  HT/PER/DIR
                          (F)     (DEG/KT/KT) (MB)    (MI)  (FT/S/D)
TANNER BANKS               65     350/ 10/ 12 1018.0R         5/270/16
S CLEMENTE BASIN           66                 1017.3R         5/260/16
SAN NICOLAS IS.               65                N/A           3/280/15
SO. S. ROSA ISLA           62 63              1019.0R         5/290/15
W. S. BARBARA CH                  290/  8/ 10 1018.6R         3/310/15
M. S. BARBARA CH           63 64  250/  4/  4 1019.2R         2/270/15
S. MONICA BASIN            68 65   50/  6/ 10 1017.9R         2/170/16
S PEDRO CHANNEL               65                N/A           2/240/15
OCEANSIDE OFFSHR              67                N/A           2/210/14
TORREY PINES OTR              66                N/A           2/240/17
SAN DIEGO BAY                 69              1017.5R
IMPERIAL BEACH                63                N/A           2/260/17
POINT LOMA SOUTH              65                N/A           2/230/17

$$




USA.gov is the U.S. government's official web portal to all federal, state and local government web resources and services.